Regional Weather Roundup
Issued by NWS

Home | Current Version | Previous Version | Graphics & Text | Print | Product List | Glossary On
Versions: 1 2 3 4 5 6 7 8 9 10 11 12 13 14 15 16 17 18 19 20 21 22 23 24 25 26 27 28 29 30 31 32 33 34 35 36 37 38 39 40 41 42 43 44 45 46 47 48 49 50
395
ASUS45 KCYS 300610
RWRWY

WYOMING REGIONAL WEATHER ROUNDUP
NATIONAL WEATHER SERVICE CHEYENNE WY
1200 AM MDT SUN APR 30 2017

NOTE:  "FAIR" INDICATES FEW OR NO CLOUDS BELOW 12,000 FEET
WITH NO SIGNIFICANT WEATHER AND/OR OBSTRUCTIONS TO VISIBILITY.

WYZ001-300700-
YELLOWSTONE NATIONAL PARK

CITY           SKY/WX    TMP DP  RH WIND       PRES   REMARKS
LK YELLOWSTONE   N/A     21  19  92 CALM      30.20S
6HR MIN TEMP:  21; 6HR MAX TEMP:  35;

W YELLOWSTONE  NOT AVBL

$$
WYZ002>013-054>058-071-098>099-300700-
NORTHERN WYOMING

CITY           SKY/WX    TMP DP  RH WIND       PRES   REMARKS
JACKSON        FAIR      30  25  80 S3        30.19S
CODY           FAIR      34  28  79 S6        30.14F WCI  29
GREYBULL       FAIR      39  26  59 E8        30.16S WCI  33
6HR MIN TEMP:  39; 6HR MAX TEMP:  54;

WORLAND        FAIR      34  29  82 S7        30.16F WCI  28
6HR MIN TEMP:  34; 6HR MAX TEMP:  50;

SHERIDAN       FAIR      28  22  78 CALM      30.14F
6HR MIN TEMP:  28; 6HR MAX TEMP:  44;

BUFFALO        FAIR      31  19  61 SW5       30.15F WCI  26
6HR MIN TEMP:  30; 6HR MAX TEMP:  38;

GILLETTE       FAIR      30  20  66 SW10      30.16F WCI  21
6HR MIN TEMP:  28; 6HR MAX TEMP:  39;

HULETT         FAIR      32  23  69 S8        30.18F WCI  25
NEWCASTLE      FAIR      32  25  74 CALM      30.19F

$$
WYZ014>020-022>026-101>103-300700-
CENTRAL WYOMING

CITY           SKY/WX    TMP DP  RH WIND       PRES   REMARKS
BIG PINEY      FAIR      26  20  77 N10       30.19F WCI  16
6HR MIN TEMP:  25; 6HR MAX TEMP:  43;

PINEDALE       MOCLDY    28  21  74 N5        30.21S WCI  23
DUBOIS         FAIR      27  21  80 S3        30.18F
LANDER         FAIR      29  20  69 NW6       30.18F WCI  23
6HR MIN TEMP:  28; 6HR MAX TEMP:  37;

RIVERTON       FAIR      30  20  66 SW6       30.20F WCI  24
6HR MIN TEMP:  30; 6HR MAX TEMP:  41;

CASPER         FAIR      27  23  85 W6        30.18F WCI  20
6HR MIN TEMP:  25; 6HR MAX TEMP:  43;

DOUGLAS        FAIR      27  22  81 CALM      30.20F
6HR MIN TEMP:  27; 6HR MAX TEMP:  42;


$$
WYZ021-027>030-104>119-300700-
SOUTHERN WYOMING

CITY           SKY/WX    TMP DP  RH WIND       PRES   REMARKS
EVANSTON       FAIR      30  21  69 SW6       30.23F WCI  24
6HR MIN TEMP:  30; 6HR MAX TEMP:  41;

KEMMERER         N/A     30  23  74 NW5       30.21F WCI  25
FORT BRIDGER   FAIR      34  21  60 W12       30.24F WCI  25
ROCK SPRINGS   FAIR      30  19  63 SE7       30.21F WCI  23
6HR MIN TEMP:  30; 6HR MAX TEMP:  42;

DIXON            N/A     28  22  75 N9        30.22S WCI  20
RAWLINS        FAIR      22  18  85 N3        30.19F
6HR MIN TEMP:  22; 6HR MAX TEMP:  37; 6HR PCP: TRACE;

SARATOGA       FAIR      23  19  86 S8        30.19S WCI  14
LARAMIE        FAIR      15  13  91 SE8       30.15F WCI   4
6HR MIN TEMP:  15; 6HR MAX TEMP:  27;

CHEYENNE       FAIR      27  17  66 NW13      30.13F WCI  16
6HR MIN TEMP:  27; 6HR MAX TEMP:  33;

TORRINGTON     NOT AVBL
PINE BLUFFS    FAIR      30  21  69 NW12      30.14F WCI  21

$$




USA.gov is the U.S. government's official web portal to all federal, state and local government web resources and services.